GW1999 Weather Reports


time (UTC)temp
C
wind
direction
speed
KPH
gust
KPH
rain 1hr
cm
rain 24hr
cm
rain mn
cm
humidity
%
barometer
mb
20260906031539 23 311 0.0 0.0 0.00 0.00 0.00 89 1012.5
20260906030056 23 311 0.0 0.0 0.00 0.00 0.00 88 1012.5
20260906024512 23 208 0.0 3.2 0.00 0.00 0.00 88 1012.5
20260906023052 23 142 0.0 3.2 0.00 0.00 0.00 88 1012.4
20260906021512 23 137 0.0 3.2 0.00 0.00 0.00 90 1012.4
20260906020051 23 360 0.0 3.2 0.00 0.00 0.00 87 1012.2
20260906014512 23 360 1.6 3.2 0.00 0.00 0.00 87 1011.8
20260906013032 23 338 0.0 3.2 0.00 0.00 0.00 87 1012.0
20260906011512 24 313 0.0 0.0 0.00 0.00 0.00 87 1011.9
20260906010032 24 313 0.0 0.0 0.00 0.00 0.00 85 1011.7
20260906004510 25 293 0.0 1.6 0.00 0.00 0.00 84 1011.4
20260906003030 25 1 0.0 3.2 0.00 0.00 0.00 81 1011.3
20260906001548 26 1 0.0 1.6 0.00 0.00 0.00 79 1011.2
20260906000029 26 178 0.0 3.2 0.00 0.00 0.00 77 1011.2
20260905234612 26 178 0.0 0.0 0.00 0.00 0.00 77 1011.1
20260905233030 27 221 0.0 0.0 0.00 0.00 0.00 75 1010.8
20260905231508 27 222 0.0 3.2 0.00 0.00 0.00 74 1010.8
20260905230030 27 250 0.0 4.8 0.00 0.00 0.00 73 1010.7
20260905224548 27 287 1.6 4.8 0.00 0.00 0.00 72 1010.6
20260905223035 27 193 0.0 3.2 0.00 0.00 0.00 72 1010.5
20260905221548 27 249 0.0 3.2 0.00 0.00 0.00 72 1010.6
20260905220024 27 226 0.0 4.8 0.00 0.00 0.00 71 1010.6
20260905214538 27 200 0.0 3.2 0.00 0.00 0.00 69 1011.1
20260905213102 28 57 0.0 3.2 0.00 0.00 0.00 68 1011.2
20260905211525 28 67 0.0 3.2 0.00 0.00 0.00 69 1011.5
20260905210100 27 51 0.0 8.0 0.00 0.00 0.00 70 1011.5
20260905210005 27 51 0.0 8.0 0.00 0.00 0.00 71 1011.3
20260905204521 27 26 1.6 6.4 0.00 0.00 0.00 74 1011.8
20260905203041 27 1 1.6 9.7 0.00 0.00 0.00 75 1012.3
20260905201605 26 331 3.2 4.8 0.00 0.00 0.00 78 1012.6
20260905200044 25 186 0.0 3.2 0.00 0.00 0.00 80 1012.3
20260905194600 25 23 1.6 9.7 0.00 0.00 0.00 82 1011.5
20260905194502 25 20 1.6 9.7 0.00 0.00 0.00 82 1011.5
20260905193028 25 214 3.2 6.4 0.00 0.00 0.00 82 1011.3
20260905191609 25 345 9.7 24.1 0.00 0.00 0.00 76 1012.2
20260905190016 30 325 16.1 33.8 0.00 0.00 0.00 62 1012.1
20260905184605 33 22 4.8 9.7 0.00 0.00 0.00 55 1011.9
20260905183031 34 18 1.6 4.8 0.00 0.00 0.00 52 1011.8
20260905181513 35 13 0.0 4.8 0.00 0.00 0.00 49 1011.1
20260905180030 36 10 6.4 11.3 0.00 0.00 0.00 47 1011.5
20260905174551 37 177 1.6 6.4 0.00 0.00 0.00 48 1011.7
20260905173025 36 322 1.6 9.7 0.00 0.00 0.00 46 1012.1
20260905171548 36 38 1.6 11.3 0.00 0.00 0.00 50 1012.2
20260905170017 35 54 1.6 11.3 0.00 0.00 0.00 49 1012.4
20260905164552 35 151 1.6 9.7 0.00 0.00 0.00 53 1012.7
20260905163014 35 21 0.0 8.0 0.00 0.00 0.00 54 1012.9
20260905161545 35 39 0.0 4.8 0.00 0.00 0.00 54 1013.0
20260905160004 34 109 0.0 6.4 0.00 0.00 0.00 57 1013.1
20260905154525 33 41 0.0 6.4 0.00 0.00 0.00 60 1013.2
20260905153005 32 209 0.0 6.4 0.00 0.00 0.00 60 1013.3
20260905151524 33 106 0.0 6.4 0.00 0.00 0.00 61 1013.5
20260905150056 32 163 0.0 3.2 0.00 0.00 0.00 65 1013.4
20260905144542 32 122 0.0 3.2 0.00 0.00 0.00 67 1013.4
20260905143047 31 295 1.6 4.8 0.00 0.00 0.00 68 1013.6
20260905141613 29 185 3.2 6.4 0.00 0.00 0.00 72 1013.6
20260905141502 29 213 1.6 4.8 0.00 0.00 0.00 72 1013.6
20260905140055 28 51 0.0 8.0 0.00 0.00 0.00 75 1013.7
20260905134507 28 219 0.0 4.8 0.00 0.00 0.00 75 1013.9
20260905133053 27 190 0.0 3.2 0.00 0.00 0.00 82 1014.0
20260905131601 26 180 0.0 3.2 0.00 0.00 0.00 84 1014.2
20260905131501 26 177 1.6 3.2 0.00 0.00 0.00 84 1014.1
20260905130047 25 9 0.0 3.2 0.00 0.00 0.00 88 1014.1
20260905124507 23 1 0.0 3.2 0.00 0.00 0.00 93 1014.0
20260905123031 23 230 0.0 0.0 0.00 0.00 0.00 94 1013.9
20260905121547 23 229 0.0 3.2 0.00 0.00 0.00 94 1013.9
20260905120013 22 352 0.0 0.0 0.00 0.00 0.00 94 1013.8
20260905114625 22 352 0.0 0.0 0.00 0.00 0.00 94 1013.5
20260905113017 22 352 0.0 0.0 0.00 0.00 0.00 94 1013.3
20260905111550 22 352 0.0 0.0 0.00 0.00 0.00 94 1013.2
20260905110025 22 352 0.0 0.0 0.00 0.00 0.00 93 1012.9
20260905104551 22 352 0.0 0.0 0.00 0.00 0.00 93 1012.7
20260905103028 22 352 0.0 0.0 0.00 0.00 0.00 93 1012.6
20260905101539 22 352 0.0 0.0 0.00 0.00 0.00 93 1012.5
20260905100023 22 352 0.0 0.0 0.00 0.00 0.00 93 1012.3
20260905094504 22 352 0.0 0.0 0.00 0.00 0.00 93 1012.4
20260905093029 22 352 0.0 0.0 0.00 0.00 0.00 93 1012.5
20260905091507 23 339 0.0 0.0 0.00 0.00 0.00 93 1012.5
20260905090033 23 339 0.0 0.0 0.00 0.00 0.00 93 1012.6
20260905084515 23 339 0.0 0.0 0.00 0.00 0.00 92 1012.6
20260905083037 23 339 0.0 0.0 0.00 0.00 0.00 92 1012.8
20260905081503 23 339 0.0 0.0 0.00 0.00 0.00 92 1012.8
20260905080025 23 339 0.0 3.2 0.00 0.00 0.00 92 1013.0
20260905074525 23 345 0.0 0.0 0.00 0.00 0.00 92 1013.2
20260905073059 23 345 0.0 0.0 0.00 0.00 0.00 91 1013.3
20260905071513 23 345 0.0 0.0 0.00 0.00 0.00 90 1013.3
20260905070033 23 345 0.0 0.0 0.00 0.00 0.00 89 1013.5
20260905064514 23 345 0.0 4.8 0.00 0.00 0.00 90 1013.6
20260905063033 23 359 0.0 0.0 0.00 0.00 0.00 89 1013.6
20260905061612 23 359 0.0 0.0 0.00 0.00 0.00 88 1013.8
20260905060027 24 359 0.0 0.0 0.00 0.00 0.00 88 1014.0
20260905054505 24 359 0.0 0.0 0.00 0.00 0.00 88 1014.0
20260905053020 24 359 0.0 0.0 0.00 0.00 0.00 87 1014.0
20260905051604 25 359 0.0 0.0 0.00 0.00 0.00 86 1014.2
20260905050017 25 359 0.0 0.0 0.00 0.00 0.00 86 1014.0
20260905044555 25 359 0.0 0.0 0.00 0.00 0.00 85 1014.2
20260905043021 25 359 0.0 0.0 0.00 0.00 0.00 84 1013.9
20260905041547 25 359 0.0 3.2 0.00 0.00 0.00 85 1013.9
20260905034524 25 252 0.0 0.0 0.00 0.00 0.00 88 1013.9
20260905033109 25 252 0.0 0.0 0.00 0.00 0.00 89 1014.0
20260905033024 25 252 0.0 0.0 0.00 0.00 0.00 89 1014.0